Location: Unspecified
(41.2830°S, 0.0000°E)
Time: 09:50:41
(UTC+00:00)

OTV 5 (USA 277) - Visible Passes

Search period start: 23 May 2019 00:00
Search period end: 02 June 2019 00:00
Orbit: 310 x 325 km, 54.5° (Epoch: 08 May)

Date Brightness Start Highest point End Pass type
(mag) Time Alt. Az. Time Alt. Az. Time Alt. Az.
27 May ? 18:35:29 10° NNW 18:36:20 17° NNW 18:36:20 17° NNW visible
28 May ? 18:50:01 10° WNW 18:51:02 20° WNW 18:51:02 20° WNW visible
29 May ? 17:31:06 10° N 17:33:18 22° NE 17:34:44 15° E visible
29 May ? 19:05:10 10° W 19:05:38 13° W 19:05:38 13° W visible
30 May ? 17:45:12 10° NW 17:47:54 69° NE 17:49:15 26° ESE visible
31 May ? 18:00:04 10° WNW 18:02:40 39° SW 18:03:41 27° SSE visible
01 Jun ? 18:15:32 10° WSW 18:17:35 18° SSW 18:18:03 18° SSW visible
